Theta_e
304 304 304 305 307 309 308 307 306 308 309 309 310 311 312 313 314 312 311 311 311 311 312 314 313 317 316 314 315 313 314 313 317 315 311 308 307 305 305 308 318 323 325
303 302 303 304 305 306 307 306 307 308 309 310 311 312 313 313 312 312 311 311 311 312 311 313 315 316 315 315 314 314 314 316 317 313 311 306 307 306 304 304 307 313 320
300 301 301 302 304 305 306 306 307 308 308 308 310 311 312 313 311 311 310 311 310 311 312 314 316 316 316 313 314 314 315 315 315 314 313 311 303 302 304 303 303 304 311
300 300 300 301 303 304 306 307 307 307 308 308 309 309 311 309 310 311 310 311 310 311 313 314 315 317 316 314 314 314 314 316 313 315 311 314 312 302 300 303 302 302 303
298 297 298 300 302 305 306 307 307 307 308 308 309 311 309 310 310 309 309 310 311 312 312 314 314 315 317 315 316 316 315 313 312 310 309 309 311 305 302 298 300 303 300
297 298 298 301 302 304 306 307 306 306 307 307 308 309 309 308 307 309 310 311 312 313 313 315 317 317 316 316 315 315 314 314 311 310 309 309 309 305 301 298 296 298 297
295 296 298 300 302 303 304 304 305 305 306 306 307 307 308 308 307 309 310 310 312 313 314 316 316 316 316 316 317 317 316 316 312 309 312 313 314 310 307 302 296 296 296
292 294 296 298 300 301 303 304 304 304 305 306 306 307 307 310 310 310 311 312 313 315 316 316 315 316 316 316 316 317 317 316 314 312 311 313 313 314 311 307 299 296 295
290 290 292 293 295 297 299 301 302 303 304 304 306 306 307 307 309 309 309 312 313 314 315 317 316 314 315 316 316 316 316 315 310 312 312 310 310 312 313 313 307 303 298
287 288 289 290 291 292 294 296 297 299 302 303 305 305 306 307 308 309 308 309 310 311 314 314 314 313 313 315 315 315 315 314 311 310 308 309 307 307 307 309 311 310 306
286 287 288 288 289 290 290 292 293 294 295 297 302 303 305 306 306 307 308 309 308 309 311 312 314 312 313 314 314 315 314 311 311 309 308 307 307 307 306 306 308 308 306
286 287 287 287 287 287 288 289 290 291 292 295 297 301 303 304 305 306 307 308 309 310 309 311 312 312 312 312 312 313 313 313 312 310 307 308 306 308 310 308 308 306 301
285 286 286 286 286 286 287 287 288 288 290 293 296 298 299 301 303 304 305 307 307 309 309 309 310 311 311 311 311 311 312 313 310 311 311 310 308 306 307 306 308 306 301
284 284 285 285 285 285 285 286 286 287 287 289 289 289 291 294 298 301 302 304 306 305 305 307 308 309 310 310 311 310 310 310 311 309 311 311 310 309 306 303 302 303 299
283 283 283 283 284 284 284 285 286 286 286 286 286 286 287 289 291 292 295 299 302 304 305 304 305 306 307 307 308 309 310 310 309 309 310 310 306 298 304 304 303 303 303
282 282 282 282 282 282 282 283 284 284 285 285 285 285 286 286 287 288 290 293 296 299 302 303 303 303 303 294 298 300 307 308 308 308 308 307 295 296 296 297 299 305 304
280 280 280 280 281 280 280 281 282 283 283 283 283 283 284 285 285 286 287 288 289 292 295 299 301 302 303 298 297 295 301 304 306 307 308 306 303 296 301 296 296 296 298
279 279 279 279 280 279 279 280 281 280 280 279 279 281 282 283 284 285 285 286 287 288 290 292 295 297 301 297 296 295 300 302 303 304 305 306 306 303 302 302 298 298 298
279 279 279 279 278 277 278 279 278 278 277 277 277 278 279 280 281 282 283 284 285 285 286 287 289 291 294 294 294 295 299 298 299 300 302 304 304 300 296 302 300 297 297
278 277 278 278 277 276 277 277 276 276 275 275 276 278 278 278 279 280 281 282 284 285 286 287 289 289 291 292 293 293 295 294 294 295 295 290 298 297 296 298 300 295 297
277 277 276 276 276 276 276 275 275 274 275 275 276 276 277 277 279 279 280 281 281 283 284 285 287 288 290 291 292 292 292 291 291 292 293 294 293 294 296 296 299 297 299
276 275 274 274 275 275 274 274 274 274 275 274 274 274 275 276 278 277 279 279 280 280 281 282 284 286 287 288 290 291 292 292 290 289 291 293 293 293 294 294 296 296 296
275 274 273 273 274 274 273 272 273 273 272 270 271 272 274 275 276 276 277 277 278 279 279 280 281 282 283 285 287 288 289 290 289 289 290 291 292 293 293 293 294 291 293
274 273 272 272 272 272 271 271 271 270 268 267 268 270 272 272 274 275 275 276 277 277 277 278 279 280 280 282 285 284 285 285 286 288 289 289 290 291 292 289 291 291 292
272 271 270 270 270 270 269 269 268 266 265 266 267 269 270 270 271 272 273 274 276 276 275 276 278 277 278 282 282 282 282 284 285 285 286 286 287 287 288 289 289 290 289
270 269 269 268 268 267 266 266 265 264 263 264 266 267 267 268 269 270 271 274 275 275 276 277 277 278 279 281 281 281 282 283 283 282 283 284 286 286 287 287 288 288 288
Wind_Speed
8 9 7 3 6 9 12 12 13 11 7 4 2 2 1 1 1 2 2 2 2 2 1 2 3 3 3 4 4 3 4 4 4 4 7 6 7 9 8 7 5 5 7
12 10 8 5 5 8 10 11 10 9 5 3 2 1 1 1 2 2 2 2 1 1 1 3 2 3 4 5 6 2 1 2 4 4 2 2 3 7 8 7 8 8 5
15 11 9 6 7 9 10 10 9 7 4 3 3 2 2 1 2 2 1 1 1 0 0 2 1 3 3 4 4 0 1 2 4 6 4 1 3 2 4 9 8 9 5
15 11 8 7 7 9 9 9 8 6 5 2 1 2 2 1 1 1 1 1 0 1 1 1 3 3 2 4 3 1 2 1 2 2 5 4 4 3 2 4 6 8 10
14 12 9 7 8 7 7 7 7 6 4 2 1 1 2 1 2 0 2 1 2 2 2 2 3 3 3 3 5 3 3 2 1 1 0 3 6 4 3 2 3 5 7
16 12 8 7 9 7 7 6 6 5 4 2 1 2 2 1 1 2 2 2 2 2 3 3 3 4 4 5 4 2 3 2 2 1 1 0 1 3 3 3 2 3 4
16 14 12 9 8 8 7 5 5 5 5 4 3 3 3 3 3 2 2 3 2 3 4 4 3 4 4 4 5 5 5 4 2 1 0 2 1 3 3 4 2 3 3
15 15 14 12 11 10 9 8 7 6 5 5 5 4 4 3 3 3 3 2 2 3 4 4 4 5 5 5 6 4 4 3 3 3 2 2 1 5 6 5 6 3 2
15 16 15 14 13 13 12 11 10 8 7 6 5 5 5 4 4 4 3 3 3 3 4 5 4 4 5 6 6 5 6 4 2 3 3 2 3 4 6 9 7 6 4
14 14 14 14 13 13 12 13 12 11 10 8 6 5 6 6 5 4 4 4 4 4 5 4 4 5 5 7 6 6 6 5 3 3 4 3 3 4 4 3 6 5 3
14 13 13 13 13 13 14 13 13 13 12 12 9 6 6 6 5 5 5 5 4 5 5 5 4 6 7 7 8 8 6 6 6 5 5 4 5 5 5 3 5 5 3
12 12 13 14 14 15 14 14 14 14 13 12 11 8 7 7 7 6 6 6 7 5 6 5 6 6 7 6 8 9 8 9 9 8 6 7 4 7 8 8 10 7 2
13 13 13 14 14 15 14 14 15 15 15 14 12 11 10 9 9 8 8 7 7 7 7 6 6 6 6 6 7 8 9 9 7 9 10 9 9 9 7 8 10 7 4
11 12 13 13 14 14 14 14 15 15 15 14 14 14 14 14 12 11 10 9 8 8 7 6 7 6 6 6 7 7 7 8 9 8 9 11 12 11 10 8 8 6 5
11 11 11 11 12 13 14 14 14 14 14 14 14 15 14 14 14 13 13 11 10 9 9 7 6 6 6 4 6 7 9 9 9 9 10 10 11 13 12 8 9 9 9
9 10 11 12 12 13 13 12 13 13 13 13 14 14 15 14 14 15 14 13 12 11 10 10 9 7 5 8 10 9 7 8 10 10 9 10 9 11 16 17 14 15 13
11 12 12 11 12 12 12 12 12 12 12 13 13 14 15 15 15 15 14 14 14 13 12 11 11 11 9 9 11 12 7 8 8 10 10 9 7 10 10 16 17 15 18
7 8 9 9 10 11 11 11 11 12 12 13 14 14 14 14 15 15 15 14 13 14 13 12 13 13 10 10 11 13 9 8 10 10 9 10 11 10 11 11 12 14 14
5 6 6 7 9 11 12 11 11 12 13 15 15 15 15 14 14 14 15 14 13 12 12 11 14 13 12 14 13 10 9 9 11 10 10 11 11 11 15 12 12 12 13
4 5 6 5 7 9 10 9 10 12 14 15 15 14 14 14 14 14 14 12 12 11 10 11 11 11 13 13 13 12 8 9 8 8 9 13 14 13 14 13 12 11 13
3 4 5 5 6 8 9 9 9 11 11 12 13 13 13 13 12 13 12 11 12 11 11 11 11 10 9 11 15 16 8 7 8 9 8 7 14 19 21 18 13 12 11
2 4 5 5 6 8 9 10 10 11 12 13 13 13 13 11 10 13 11 11 11 11 11 11 10 8 10 12 14 17 16 15 10 10 9 10 14 18 22 18 21 20 15
1 3 5 5 6 7 8 10 11 13 13 14 13 13 13 12 11 12 12 11 10 9 10 8 9 9 8 9 16 16 17 16 11 9 13 20 20 20 18 23 22 17 11
3 4 6 7 8 8 9 10 12 13 11 13 14 13 12 14 12 10 10 9 9 9 9 9 10 10 10 9 7 9 10 11 10 11 10 13 17 19 18 11 11 10 10
3 4 6 7 9 9 10 11 11 12 12 13 13 13 11 12 13 11 11 10 11 11 11 10 10 12 11 10 19 19 13 12 12 15 9 9 9 9 9 8 10 9 9
3 5 6 8 10 11 11 11 8 9 10 12 10 10 11 11 11 12 12 16 21 24 24 25 20 13 22 27 26 28 28 27 28 12 11 10 9 10 10 9 9 9 12
Wind_Direction
2 5 14 70 136 150 152 150 146 142 146 150 178 197 172 118 67 43 54 72 74 89 340 313 356 104 108 116 129 108 129 81 105 93 80 64 50 40 21 10 22 79 113
8 18 27 63 105 130 132 139 137 141 141 144 131 354 158 112 71 59 82 82 75 84 19 336 26 102 126 125 144 131 2 74 8 36 267 44 42 21 21 22 18 27 74
0 9 27 52 104 115 125 127 127 126 114 101 117 130 157 156 151 105 126 91 45 223 179 358 174 144 155 145 172 84 30 14 24 26 348 316 40 346 357 16 21 19 40
9 16 28 58 84 99 107 111 111 109 106 118 154 288 317 12 78 89 67 122 168 249 10 332 180 156 175 160 184 154 311 209 88 359 20 36 59 97 27 13 12 27 28
9 14 37 59 75 88 94 95 99 91 95 102 61 322 320 72 74 212 169 193 189 241 288 279 175 194 184 200 208 180 222 118 24 41 59 39 81 43 104 43 359 39 15
11 23 39 71 84 80 74 76 79 74 75 37 32 352 307 310 208 194 175 201 211 210 236 222 216 223 209 212 214 199 228 158 20 112 165 131 30 139 125 107 37 52 6
20 22 34 43 50 52 56 55 53 52 19 3 352 329 331 286 257 262 217 198 218 224 224 221 207 228 226 214 217 216 223 203 188 240 182 279 32 121 111 111 99 97 12
23 30 29 30 30 24 21 18 16 23 9 347 341 315 299 303 292 290 282 264 252 263 245 231 228 224 223 218 212 231 229 228 243 211 222 247 222 176 172 153 156 102 48
25 28 26 27 27 23 17 8 3 1 360 353 340 327 314 304 305 300 283 299 303 295 264 273 241 222 224 222 221 227 237 239 241 275 233 217 189 196 178 170 184 139 147
29 28 26 24 23 23 17 16 12 3 350 349 344 334 318 304 301 294 270 278 292 291 285 274 232 222 214 230 232 240 229 227 229 236 219 209 163 166 150 171 196 212 158
28 28 28 26 25 23 22 15 13 6 0 348 339 335 321 308 299 288 288 281 292 285 285 268 241 236 232 230 233 233 232 225 226 226 224 220 202 177 168 170 196 202 169
33 30 30 28 26 26 20 15 11 10 359 347 337 336 330 322 308 299 293 285 278 274 270 273 251 237 234 229 227 235 226 230 229 217 214 225 199 222 200 191 203 201 187
29 30 30 29 25 22 16 16 12 11 2 2 1 2 358 344 330 320 308 296 288 284 285 278 269 248 237 229 230 233 240 232 223 227 226 222 202 212 207 209 202 205 181
31 25 22 20 22 18 13 12 13 13 7 10 13 11 4 355 346 335 325 314 302 290 283 271 271 271 264 242 237 230 236 239 232 216 227 231 223 217 211 202 211 198 196
26 23 17 14 16 12 8 7 9 11 6 14 15 9 2 359 355 350 342 332 318 302 292 287 273 267 260 260 258 245 240 236 233 227 221 223 223 226 217 199 207 201 205
26 18 14 11 12 7 2 359 2 5 3 10 13 8 3 2 0 353 346 342 337 326 313 294 281 269 255 244 250 257 261 249 243 237 228 225 216 222 216 211 210 203 200
7 7 7 7 6 3 357 356 357 0 6 6 7 6 2 0 358 353 351 350 344 336 328 314 302 289 278 249 244 251 258 259 256 250 245 234 220 213 212 222 224 217 213
11 6 1 5 10 5 3 356 3 4 5 8 7 5 0 356 353 350 350 348 347 340 334 328 320 310 302 282 267 258 260 255 252 251 249 245 242 222 216 218 216 224 223
17 12 6 7 7 6 358 1 7 7 8 7 2 358 356 350 350 348 343 340 337 337 333 322 319 313 306 317 315 291 272 260 257 251 247 246 248 239 218 227 225 225 227
36 18 9 15 13 8 358 4 6 3 3 357 350 348 348 346 345 342 335 331 328 323 323 319 318 308 306 307 299 303 295 273 267 256 251 241 245 247 228 226 234 233 235
46 25 15 15 12 3 355 2 358 1 349 343 337 338 339 335 334 331 325 324 324 324 324 319 321 315 308 307 306 299 291 284 285 274 266 252 240 240 243 233 239 232 234
47 23 4 0 1 0 353 350 351 343 339 337 329 328 327 325 323 324 320 322 325 324 323 321 318 323 327 323 320 314 304 293 283 279 281 275 257 240 242 241 245 244 237
27 6 347 333 341 350 348 334 337 334 333 328 322 320 319 316 320 317 318 316 320 319 320 318 316 318 321 316 311 312 321 308 298 288 281 279 273 264 257 249 244 237 239
334 343 333 330 328 340 337 331 332 333 326 316 316 316 316 318 317 313 310 308 306 311 311 311 311 313 313 308 315 328 319 313 302 294 286 278 269 266 262 260 248 238 236
298 324 318 312 313 326 325 327 333 331 321 319 317 317 317 317 313 309 306 303 298 300 303 299 302 305 302 302 317 316 314 305 308 308 285 277 269 266 259 249 244 241 235
317 312 312 311 318 325 321 320 321 321 318 315 316 319 313 315 311 309 305 297 299 301 299 298 293 289 295 298 309 310 308 311 310 298 288 278 267 259 258 251 247 239 240